Location: Newark
(30.0333°N, 31.2167°E)
Time: 15:02:40
(UTC+00:00)

Tiros 1 despin weight - Visible Passes

Search period start: 27 January 2020 00:00
Search period end: 06 February 2020 00:00
Orbit: 594 x 642 km, 48.2° (Epoch: 26 January)

Date Brightness Start Highest point End Pass type
(mag) Time Alt. Az. Time Alt. Az. Time Alt. Az.
29 Jan ? 15:59:45 10° WSW 16:01:38 12° SW 16:03:31 10° SSW visible
02 Feb ? 03:30:10 10° SE 03:31:17 11° SE 03:32:23 10° ESE visible
03 Feb ? 03:43:53 10° S 03:47:31 26° SE 03:51:12 10° ENE visible
04 Feb ? 03:59:34 10° SW 04:03:54 60° SE 04:08:16 10° NE visible
05 Feb ? 02:36:35 10° SSE 02:39:16 16° SE 02:41:57 10° E visible
05 Feb ? 04:16:04 10° WSW 04:20:25 60° NW 04:24:49 10° NE visible
